Location: Newark
(41.0400°S, 62.7845°W)
Time: 09:16:49
(UTC+00:00)

Transit 2A - Pass Details

Date: 06 December 2021
Orbit: 591 x 967 km, 66.7° (Epoch: 19 January)

Event Time Altitude Azimuth Distance (km) Brightness Sun altitude
Rises 00:25:22 0° 207° (SSW) 2,865 10.4 -9.0°
Reaches altitude 10° 00:27:38 10° 203° (SSW) 1,963 9.3 -9.3°
Maximum altitude 00:31:57 60° 122° (ESE) 715 5.8 -9.9°
Enters shadow 00:35:45 14° 43° (NE) 1,767 7.2 -10.5°
Drops below altitude 10° 00:36:28 10° 41° (NE) 2,045 - -10.6°
Sets 00:38:51 0° 37° (NE) 2,996 - -10.9°
